Time,TemperatureF,DewpointF,PressureIn,WindDirection,WindDirectionDegrees,WindSpeedMPH,WindSpeedGustMPH,Humidity,HourlyPrecipIn,Conditions,Clouds,dailyrainin,SoftwareType,DateUTC
2013-08-12 00:01:00,58.7,57.0,30.01,West,274,0.0,0.0,94,0.00,,,0.00,WUHU216DAVISVP2,2013-08-12 04:01:00,
2013-08-12 00:04:00,58.6,56.9,30.02,West,274,0.0,0.0,94,0.00,,,0.00,WUHU216DAVISVP2,2013-08-12 04:04:00,
2013-08-12 00:09:00,58.5,57.0,30.01,West,274,0.0,0.0,95,0.00,,,0.00,WUHU216DAVISVP2,2013-08-12 04:09:00,
2013-08-12 00:14:00,58.5,57.0,30.01,West,274,0.0,0.0,95,0.00,,,0.00,WUHU216DAVISVP2,2013-08-12 04:14:00,
2013-08-12 00:19:00,58.4,56.9,30.01,West,274,0.0,0.0,95,0.00,,,0.00,WUHU216DAVISVP2,2013-08-12 04:19:00,
2013-08-12 00:24:00,58.2,56.7,30.02,West,274,0.0,0.0,95,0.00,,,0.00,WUHU216DAVISVP2,2013-08-12 04:24:00,
2013-08-12 00:29:00,58.0,56.5,30.02,West,274,0.0,0.0,95,0.00,,,0.00,WUHU216DAVISVP2,2013-08-12 04:29:00,
2013-08-12 00:34:00,58.0,56.5,30.01,West,274,0.0,0.0,95,0.00,,,0.00,WUHU216DAVISVP2,2013-08-12 04:34:00,
2013-08-12 00:39:00,58.0,56.5,30.02,West,274,0.0,0.0,95,0.00,,,0.00,WUHU216DAVISVP2,2013-08-12 04:39:00,
2013-08-12 00:44:00,57.9,56.5,30.02,West,274,0.0,0.0,95,0.00,,,0.00,WUHU216DAVISVP2,2013-08-12 04:44:00,
2013-08-12 00:49:00,57.8,56.4,30.01,West,274,0.0,0.0,95,0.00,,,0.00,WUHU216DAVISVP2,2013-08-12 04:49:00,
2013-08-12 00:54:00,57.7,56.3,30.01,West,274,0.0,0.0,95,0.00,,,0.00,WUHU216DAVISVP2,2013-08-12 04:54:00,
2013-08-12 00:59:00,57.6,56.2,30.01,West,274,0.0,0.0,95,0.00,,,0.00,WUHU216DAVISVP2,2013-08-12 04:59:00,
2013-08-12 01:04:00,57.5,56.0,30.01,West,274,0.0,0.0,95,0.00,,,0.00,WUHU216DAVISVP2,2013-08-12 05:04:00,
2013-08-12 01:09:00,57.4,56.2,30.01,West,274,0.0,0.0,96,0.00,,,0.00,WUHU216DAVISVP2,2013-08-12 05:09:00,
2013-08-12 01:14:00,57.3,56.1,30.01,West,274,0.0,0.0,96,0.00,,,0.00,WUHU216DAVISVP2,2013-08-12 05:14:00,
2013-08-12 01:19:00,57.2,56.0,30.00,West,274,0.0,0.0,96,0.00,,,0.00,WUHU216DAVISVP2,2013-08-12 05:19:00,
2013-08-12 01:24:00,57.1,55.9,30.01,West,274,0.0,0.0,96,0.00,,,0.00,WUHU216DAVISVP2,2013-08-12 05:24:00,
2013-08-12 01:29:00,57.0,55.8,30.00,West,274,0.0,0.0,96,0.00,,,0.00,WUHU216DAVISVP2,2013-08-12 05:29:00,
2013-08-12 01:34:00,57.0,55.8,30.00,West,274,0.0,0.0,96,0.00,,,0.00,WUHU216DAVISVP2,2013-08-12 05:34:00,
2013-08-12 01:39:00,56.9,55.7,30.00,West,274,0.0,0.0,96,0.00,,,0.00,WUHU216DAVISVP2,2013-08-12 05:39:00,
2013-08-12 01:44:00,56.8,55.6,30.00,West,274,0.0,0.0,96,0.00,,,0.00,WUHU216DAVISVP2,2013-08-12 05:44:00,
2013-08-12 01:49:00,56.7,55.5,30.00,West,274,0.0,0.0,96,0.00,,,0.00,WUHU216DAVISVP2,2013-08-12 05:49:00,
2013-08-12 01:54:00,56.6,55.4,30.00,West,274,0.0,0.0,96,0.00,,,0.00,WUHU216DAVISVP2,2013-08-12 05:54:00,
2013-08-12 01:59:00,56.6,55.4,30.00,West,274,0.0,0.0,96,0.00,,,0.00,WUHU216DAVISVP2,2013-08-12 05:59:00,
2013-08-12 02:04:00,56.6,55.5,30.01,West,274,0.0,0.0,96,0.00,,,0.00,WUHU216DAVISVP2,2013-08-12 06:04:00,
2013-08-12 02:09:00,56.5,55.4,30.01,West,274,0.0,0.0,96,0.00,,,0.00,WUHU216DAVISVP2,2013-08-12 06:09:00,
2013-08-12 02:14:00,56.3,55.1,30.00,West,274,0.0,0.0,96,0.00,,,0.00,WUHU216DAVISVP2,2013-08-12 06:14:00,
2013-08-12 02:19:00,56.2,55.0,30.00,West,274,0.0,0.0,96,0.00,,,0.00,WUHU216DAVISVP2,2013-08-12 06:19:00,
2013-08-12 02:24:00,56.2,55.0,30.00,West,274,0.0,0.0,96,0.00,,,0.00,WUHU216DAVISVP2,2013-08-12 06:24:00,
2013-08-12 02:29:00,56.2,55.0,30.00,West,274,0.0,0.0,96,0.00,,,0.00,WUHU216DAVISVP2,2013-08-12 06:29:00,
2013-08-12 02:34:00,56.1,55.0,30.01,West,274,0.0,0.0,96,0.00,,,0.00,WUHU216DAVISVP2,2013-08-12 06:34:00,
2013-08-12 02:39:00,55.9,54.8,30.01,West,274,0.0,0.0,96,0.00,,,0.00,WUHU216DAVISVP2,2013-08-12 06:39:00,
2013-08-12 02:44:00,55.8,54.6,30.01,West,274,0.0,0.0,96,0.00,,,0.00,WUHU216DAVISVP2,2013-08-12 06:44:00,
2013-08-12 02:49:00,55.8,54.6,30.01,West,274,0.0,0.0,96,0.00,,,0.00,WUHU216DAVISVP2,2013-08-12 06:49:00,
2013-08-12 02:54:00,55.7,54.5,30.01,West,274,0.0,0.0,96,0.00,,,0.00,WUHU216DAVISVP2,2013-08-12 06:54:00,
2013-08-12 02:59:00,55.7,54.5,30.01,West,274,0.0,0.0,96,0.00,,,0.00,WUHU216DAVISVP2,2013-08-12 06:59:00,
2013-08-12 03:04:00,55.6,54.4,30.01,West,274,0.0,0.0,96,0.00,,,0.00,WUHU216DAVISVP2,2013-08-12 07:04:00,
2013-08-12 03:09:00,55.6,54.7,30.01,West,274,0.0,0.0,97,0.00,,,0.00,WUHU216DAVISVP2,2013-08-12 07:09:00,
2013-08-12 03:14:00,55.7,54.9,30.01,West,274,0.0,0.0,97,0.00,,,0.00,WUHU216DAVISVP2,2013-08-12 07:14:00,
2013-08-12 03:19:00,55.7,54.9,30.00,West,274,0.0,0.0,97,0.00,,,0.00,WUHU216DAVISVP2,2013-08-12 07:19:00,
2013-08-12 03:24:00,55.8,54.9,30.00,West,274,0.0,0.0,97,0.00,,,0.00,WUHU216DAVISVP2,2013-08-12 07:24:00,
2013-08-12 03:29:00,55.7,54.8,30.00,West,274,0.0,0.0,97,0.00,,,0.00,WUHU216DAVISVP2,2013-08-12 07:29:00,
2013-08-12 03:34:00,55.8,54.9,30.01,West,274,0.0,0.0,97,0.00,,,0.00,WUHU216DAVISVP2,2013-08-12 07:34:00,
2013-08-12 03:39:00,55.8,54.9,30.00,West,274,0.0,0.0,97,0.00,,,0.00,WUHU216DAVISVP2,2013-08-12 07:39:00,
2013-08-12 03:44:00,55.8,55.0,30.00,West,274,0.0,0.0,97,0.00,,,0.00,WUHU216DAVISVP2,2013-08-12 07:44:00,
2013-08-12 03:49:00,55.9,55.1,30.00,West,274,0.0,0.0,97,0.00,,,0.00,WUHU216DAVISVP2,2013-08-12 07:49:00,
2013-08-12 03:54:00,56.0,55.1,30.00,West,274,0.0,0.0,97,0.00,,,0.00,WUHU216DAVISVP2,2013-08-12 07:54:00,
2013-08-12 03:59:00,56.0,55.1,30.00,West,274,0.0,0.0,97,0.00,,,0.00,WUHU216DAVISVP2,2013-08-12 07:59:00,
2013-08-12 04:04:00,56.0,55.1,30.00,West,274,0.0,0.0,97,0.00,,,0.00,WUHU216DAVISVP2,2013-08-12 08:04:00,
2013-08-12 04:09:00,56.1,55.2,29.99,West,274,0.0,0.0,97,0.00,,,0.00,WUHU216DAVISVP2,2013-08-12 08:09:00,
2013-08-12 04:14:00,56.2,55.3,30.00,West,274,0.0,0.0,97,0.00,,,0.00,WUHU216DAVISVP2,2013-08-12 08:14:00,
2013-08-12 04:19:00,56.2,55.3,30.00,West,274,0.0,0.0,97,0.00,,,0.00,WUHU216DAVISVP2,2013-08-12 08:19:00,
2013-08-12 04:24:00,56.1,55.2,29.99,West,274,0.0,0.0,97,0.00,,,0.00,WUHU216DAVISVP2,2013-08-12 08:24:00,
2013-08-12 04:29:00,56.1,55.2,30.00,West,274,0.0,0.0,97,0.00,,,0.00,WUHU216DAVISVP2,2013-08-12 08:29:00,
2013-08-12 04:34:00,56.2,55.3,30.00,West,274,0.0,0.0,97,0.00,,,0.00,WUHU216DAVISVP2,2013-08-12 08:34:00,
2013-08-12 04:39:00,56.1,55.3,29.99,West,274,0.0,0.0,97,0.00,,,0.00,WUHU216DAVISVP2,2013-08-12 08:39:00,
2013-08-12 04:44:00,56.0,55.2,30.00,West,274,0.0,0.0,97,0.00,,,0.00,WUHU216DAVISVP2,2013-08-12 08:44:00,
2013-08-12 04:49:00,56.0,55.1,30.00,West,274,0.0,0.0,97,0.00,,,0.00,WUHU216DAVISVP2,2013-08-12 08:49:00,
2013-08-12 04:54:00,56.0,55.1,30.00,West,274,0.0,0.0,97,0.00,,,0.00,WUHU216DAVISVP2,2013-08-12 08:54:00,
2013-08-12 04:59:00,56.1,55.2,29.99,West,274,0.0,0.0,97,0.00,,,0.00,WUHU216DAVISVP2,2013-08-12 08:59:00,
2013-08-12 05:04:00,56.2,55.3,29.99,West,274,0.0,0.0,97,0.00,,,0.00,WUHU216DAVISVP2,2013-08-12 09:04:00,
2013-08-12 05:09:00,56.2,55.3,29.99,West,274,0.0,0.0,97,0.00,,,0.00,WUHU216DAVISVP2,2013-08-12 09:09:00,
2013-08-12 05:14:00,56.2,55.4,30.00,West,274,0.0,0.0,97,0.00,,,0.00,WUHU216DAVISVP2,2013-08-12 09:14:00,
2013-08-12 05:19:00,56.2,55.4,30.00,West,274,0.0,0.0,97,0.00,,,0.00,WUHU216DAVISVP2,2013-08-12 09:19:00,
2013-08-12 05:24:00,56.2,55.4,30.00,West,274,0.0,0.0,97,0.00,,,0.00,WUHU216DAVISVP2,2013-08-12 09:24:00,
2013-08-12 05:29:00,56.2,55.3,30.00,West,274,0.0,0.0,97,0.00,,,0.00,WUHU216DAVISVP2,2013-08-12 09:29:00,
2013-08-12 05:34:00,56.3,55.4,30.00,West,274,0.0,0.0,97,0.00,,,0.00,WUHU216DAVISVP2,2013-08-12 09:34:00,
2013-08-12 05:39:00,56.3,55.4,30.00,West,274,0.0,0.0,97,0.00,,,0.00,WUHU216DAVISVP2,2013-08-12 09:39:00,
2013-08-12 05:44:00,56.3,55.4,30.00,West,274,0.0,0.0,97,0.00,,,0.00,WUHU216DAVISVP2,2013-08-12 09:44:00,
2013-08-12 05:49:00,56.2,55.3,29.99,West,274,0.0,0.0,97,0.00,,,0.00,WUHU216DAVISVP2,2013-08-12 09:49:00,
2013-08-12 05:54:00,56.2,55.4,30.00,West,274,0.0,0.0,97,0.00,,,0.00,WUHU216DAVISVP2,2013-08-12 09:54:00,
2013-08-12 05:59:00,56.2,55.4,30.00,West,274,0.0,0.0,97,0.00,,,0.00,WUHU216DAVISVP2,2013-08-12 09:59:00,
2013-08-12 06:04:00,56.2,55.4,30.00,West,274,0.0,0.0,97,0.00,,,0.00,WUHU216DAVISVP2,2013-08-12 10:04:00,
2013-08-12 06:09:00,56.2,55.3,30.00,West,274,0.0,0.0,97,0.00,,,0.00,WUHU216DAVISVP2,2013-08-12 10:09:00,
2013-08-12 06:14:00,56.1,55.2,30.00,West,274,0.0,0.0,97,0.00,,,0.00,WUHU216DAVISVP2,2013-08-12 10:14:00,
2013-08-12 06:19:00,56.1,55.2,30.00,West,274,0.0,0.0,97,0.00,,,0.00,WUHU216DAVISVP2,2013-08-12 10:19:00,
2013-08-12 06:24:00,56.2,55.3,30.00,West,274,0.0,0.0,97,0.00,,,0.00,WUHU216DAVISVP2,2013-08-12 10:24:00,
2013-08-12 06:29:00,56.3,55.4,30.00,West,274,0.0,0.0,97,0.00,,,0.00,WUHU216DAVISVP2,2013-08-12 10:29:00,
2013-08-12 06:34:00,56.5,55.9,30.00,West,274,0.0,0.0,98,0.00,,,0.00,WUHU216DAVISVP2,2013-08-12 10:34:00,
2013-08-12 06:39:00,56.6,56.0,30.00,West,274,0.0,0.0,98,0.00,,,0.00,WUHU216DAVISVP2,2013-08-12 10:39:00,
2013-08-12 06:44:00,56.7,56.1,30.00,West,274,0.0,0.0,98,0.00,,,0.00,WUHU216DAVISVP2,2013-08-12 10:44:00,
2013-08-12 06:49:00,56.8,56.2,30.00,West,274,0.0,0.0,98,0.00,,,0.00,WUHU216DAVISVP2,2013-08-12 10:49:00,
2013-08-12 06:54:00,56.9,56.3,30.00,West,274,0.0,0.0,98,0.00,,,0.00,WUHU216DAVISVP2,2013-08-12 10:54:00,
2013-08-12 06:59:00,57.0,56.4,30.00,West,274,0.0,0.0,98,0.00,,,0.00,WUHU216DAVISVP2,2013-08-12 10:59:00,
2013-08-12 07:04:00,57.2,56.6,30.00,West,274,0.0,0.0,98,0.00,,,0.00,WUHU216DAVISVP2,2013-08-12 11:04:00,
2013-08-12 07:09:00,57.4,56.8,30.01,West,274,0.0,0.0,98,0.00,,,0.00,WUHU216DAVISVP2,2013-08-12 11:09:00,
2013-08-12 07:14:00,57.6,57.0,30.00,West,274,0.0,0.0,98,0.00,,,0.00,WUHU216DAVISVP2,2013-08-12 11:14:00,
2013-08-12 07:19:00,57.6,57.0,30.01,West,274,0.0,0.0,98,0.00,,,0.00,WUHU216DAVISVP2,2013-08-12 11:19:00,
2013-08-12 07:24:00,57.8,57.2,30.01,West,274,0.0,0.0,98,0.00,,,0.00,WUHU216DAVISVP2,2013-08-12 11:24:00,
2013-08-12 07:29:00,58.0,57.4,30.01,West,274,0.0,0.0,98,0.00,,,0.00,WUHU216DAVISVP2,2013-08-12 11:29:00,
2013-08-12 07:34:00,58.4,57.8,30.00,West,274,0.0,1.0,98,0.00,,,0.00,WUHU216DAVISVP2,2013-08-12 11:34:00,
2013-08-12 07:39:00,58.7,58.1,30.01,West,274,0.0,1.0,98,0.00,,,0.00,WUHU216DAVISVP2,2013-08-12 11:39:00,
2013-08-12 07:44:00,59.1,58.5,30.01,West,274,0.0,1.0,98,0.00,,,0.00,WUHU216DAVISVP2,2013-08-12 11:44:00,
2013-08-12 07:49:00,59.4,58.8,30.01,West,274,0.0,0.0,98,0.00,,,0.00,WUHU216DAVISVP2,2013-08-12 11:49:00,
2013-08-12 07:54:00,59.8,59.2,30.01,West,274,0.0,0.0,98,0.00,,,0.00,WUHU216DAVISVP2,2013-08-12 11:54:00,
2013-08-12 07:59:00,60.3,59.7,30.01,West,274,0.0,0.0,98,0.00,,,0.00,WUHU216DAVISVP2,2013-08-12 11:59:00,
2013-08-12 08:04:00,60.9,60.3,30.01,West,274,0.0,0.0,98,0.00,,,0.00,WUHU216DAVISVP2,2013-08-12 12:04:00,
2013-08-12 08:09:00,61.8,61.2,30.01,West,274,1.0,1.0,98,0.00,,,0.00,WUHU216DAVISVP2,2013-08-12 12:09:00,
2013-08-12 08:14:00,62.4,61.5,30.00,West,274,1.4,2.0,97,0.00,,,0.00,WUHU216DAVISVP2,2013-08-12 12:14:00,
2013-08-12 08:19:00,63.1,61.9,30.00,West,274,0.0,2.0,96,0.00,,,0.00,WUHU216DAVISVP2,2013-08-12 12:19:00,
2013-08-12 08:24:00,63.8,62.3,30.00,West,274,0.0,2.0,95,0.00,,,0.00,WUHU216DAVISVP2,2013-08-12 12:24:00,
2013-08-12 08:29:00,64.3,62.2,30.00,West,274,0.0,2.0,93,0.00,,,0.00,WUHU216DAVISVP2,2013-08-12 12:29:00,
2013-08-12 08:34:00,65.1,62.7,30.00,West,274,0.0,0.0,92,0.00,,,0.00,WUHU216DAVISVP2,2013-08-12 12:34:00,
2013-08-12 08:39:00,65.9,62.6,30.00,West,274,0.0,0.0,89,0.00,,,0.00,WUHU216DAVISVP2,2013-08-12 12:39:00,
2013-08-12 08:44:00,66.7,62.7,30.00,West,274,0.0,0.0,87,0.00,,,0.00,WUHU216DAVISVP2,2013-08-12 12:44:00,
2013-08-12 08:49:00,67.7,62.4,30.00,West,274,0.0,0.0,83,0.00,,,0.00,WUHU216DAVISVP2,2013-08-12 12:49:00,
2013-08-12 08:54:00,68.3,62.3,30.00,West,274,0.0,0.0,81,0.00,,,0.00,WUHU216DAVISVP2,2013-08-12 12:54:00,
2013-08-12 08:59:00,68.9,62.2,30.00,West,274,1.0,1.0,79,0.00,,,0.00,WUHU216DAVISVP2,2013-08-12 12:59:00,
2013-08-12 09:04:00,69.4,62.0,30.00,West,274,1.5,2.0,77,0.00,,,0.00,WUHU216DAVISVP2,2013-08-12 13:04:00,
2013-08-12 09:09:00,69.9,62.1,30.00,West,274,1.0,2.0,76,0.00,,,0.00,WUHU216DAVISVP2,2013-08-12 13:09:00,
2013-08-12 09:14:00,70.4,61.5,29.99,West,274,0.0,2.0,73,0.00,,,0.00,WUHU216DAVISVP2,2013-08-12 13:14:00,
2013-08-12 09:19:00,70.7,60.6,29.99,West,274,2.1,4.0,70,0.00,,,0.00,WUHU216DAVISVP2,2013-08-12 13:19:00,
2013-08-12 09:24:00,70.4,61.9,29.99,WNW,289,2.5,9.0,74,0.00,,,0.00,WUHU216DAVISVP2,2013-08-12 13:24:00,
2013-08-12 09:29:00,70.5,61.6,29.99,WNW,291,2.0,9.0,73,0.00,,,0.00,WUHU216DAVISVP2,2013-08-12 13:29:00,
2013-08-12 09:34:00,70.6,59.7,29.99,WSW,252,7.0,9.0,68,0.00,,,0.00,WUHU216DAVISVP2,2013-08-12 13:34:00,
2013-08-12 09:39:00,70.8,59.9,29.99,WNW,298,1.6,9.0,68,0.00,,,0.00,WUHU216DAVISVP2,2013-08-12 13:39:00,
2013-08-12 09:44:00,71.0,59.3,29.99,West,268,2.5,7.0,66,0.00,,,0.00,WUHU216DAVISVP2,2013-08-12 13:44:00,
2013-08-12 09:49:00,71.3,61.2,29.99,West,259,3.1,8.0,70,0.00,,,0.00,WUHU216DAVISVP2,2013-08-12 13:49:00,
2013-08-12 09:54:00,71.6,60.3,30.00,WNW,294,2.8,8.0,67,0.00,,,0.00,WUHU216DAVISVP2,2013-08-12 13:54:00,
2013-08-12 09:59:00,71.9,60.1,29.99,WNW,290,4.8,10.0,66,0.00,,,0.00,WUHU216DAVISVP2,2013-08-12 13:59:00,
2013-08-12 10:04:00,71.8,58.3,29.99,West,274,11.0,11.0,62,0.00,,,0.00,WUHU216DAVISVP2,2013-08-12 14:04:00,
2013-08-12 10:09:00,71.6,58.1,29.99,WSW,250,3.1,11.0,62,0.00,,,0.00,WUHU216DAVISVP2,2013-08-12 14:09:00,
2013-08-12 10:14:00,71.8,59.6,29.99,WNW,286,8.0,11.0,65,0.00,,,0.00,WUHU216DAVISVP2,2013-08-12 14:14:00,
2013-08-12 10:19:00,71.7,59.1,29.99,WNW,284,6.0,11.0,64,0.00,,,0.00,WUHU216DAVISVP2,2013-08-12 14:19:00,
2013-08-12 10:24:00,72.1,58.6,29.99,West,273,4.2,10.0,62,0.00,,,0.00,WUHU216DAVISVP2,2013-08-12 14:24:00,
2013-08-12 10:29:00,72.5,58.9,29.99,West,280,2.1,10.0,62,0.00,,,0.00,WUHU216DAVISVP2,2013-08-12 14:29:00,
2013-08-12 10:34:00,72.8,58.3,30.00,WNW,302,3.4,9.0,60,0.00,,,0.00,WUHU216DAVISVP2,2013-08-12 14:34:00,
2013-08-12 10:39:00,72.9,57.9,30.00,NNW,327,2.6,8.0,59,0.00,,,0.00,WUHU216DAVISVP2,2013-08-12 14:39:00,
2013-08-12 10:44:00,73.2,58.7,29.99,NW,314,2.9,8.0,60,0.00,,,0.00,WUHU216DAVISVP2,2013-08-12 14:44:00,
2013-08-12 10:49:00,73.5,59.0,29.99,WNW,292,3.9,8.0,60,0.00,,,0.00,WUHU216DAVISVP2,2013-08-12 14:49:00,
2013-08-12 10:54:00,73.6,58.6,29.99,WNW,291,3.3,8.0,59,0.00,,,0.00,WUHU216DAVISVP2,2013-08-12 14:54:00,
2013-08-12 10:59:00,73.8,58.8,29.99,West,259,4.9,9.0,59,0.00,,,0.00,WUHU216DAVISVP2,2013-08-12 14:59:00,
2013-08-12 11:04:00,73.5,57.5,29.99,WSW,242,5.0,9.0,57,0.00,,,0.00,WUHU216DAVISVP2,2013-08-12 15:04:00,
2013-08-12 11:09:00,73.6,59.1,29.99,West,279,4.9,10.0,60,0.00,,,0.00,WUHU216DAVISVP2,2013-08-12 15:09:00,
2013-08-12 11:14:00,74.0,60.4,29.99,West,277,2.5,10.0,62,0.00,,,0.00,WUHU216DAVISVP2,2013-08-12 15:14:00,
2013-08-12 11:19:00,74.5,60.4,29.98,NNW,346,1.3,10.0,61,0.00,,,0.00,WUHU216DAVISVP2,2013-08-12 15:19:00,
2013-08-12 11:24:00,74.8,59.2,29.98,NW,307,4.0,10.0,58,0.00,,,0.00,WUHU216DAVISVP2,2013-08-12 15:24:00,
2013-08-12 11:29:00,74.7,58.1,29.99,WNW,303,3.9,8.0,56,0.00,,,0.00,WUHU216DAVISVP2,2013-08-12 15:29:00,
2013-08-12 11:34:00,74.8,59.2,29.98,NNW,330,1.0,8.0,58,0.00,,,0.00,WUHU216DAVISVP2,2013-08-12 15:34:00,
2013-08-12 11:39:00,75.4,59.3,29.98,NNW,327,2.3,8.0,57,0.00,,,0.00,WUHU216DAVISVP2,2013-08-12 15:39:00,
2013-08-12 11:44:00,76.0,59.3,29.98,NW,324,1.0,8.0,56,0.00,,,0.00,WUHU216DAVISVP2,2013-08-12 15:44:00,
2013-08-12 11:49:00,75.7,58.0,29.98,West,271,3.9,7.0,54,0.00,,,0.00,WUHU216DAVISVP2,2013-08-12 15:49:00,
2013-08-12 11:54:00,75.5,58.4,29.98,WSW,257,1.9,7.0,55,0.00,,,0.00,WUHU216DAVISVP2,2013-08-12 15:54:00,
2013-08-12 11:59:00,75.6,57.4,29.98,WNW,291,3.6,7.0,53,0.00,,,0.00,WUHU216DAVISVP2,2013-08-12 15:59:00,
2013-08-12 12:04:00,75.5,57.2,29.97,West,271,2.0,7.0,53,0.00,,,0.00,WUHU216DAVISVP2,2013-08-12 16:04:00,
2013-08-12 12:09:00,75.6,56.7,29.98,West,277,6.0,9.0,52,0.00,,,0.00,WUHU216DAVISVP2,2013-08-12 16:09:00,
2013-08-12 12:14:00,75.3,57.1,29.97,WNW,286,1.3,10.0,53,0.00,,,0.00,WUHU216DAVISVP2,2013-08-12 16:14:00,
2013-08-12 12:19:00,75.7,58.0,29.97,WNW,283,2.6,10.0,54,0.00,,,0.00,WUHU216DAVISVP2,2013-08-12 16:19:00,
2013-08-12 12:24:00,76.3,58.0,29.97,WNW,283,0.0,10.0,53,0.00,,,0.00,WUHU216DAVISVP2,2013-08-12 16:24:00,
2013-08-12 12:29:00,76.6,58.7,29.97,NW,308,1.0,10.0,54,0.00,,,0.00,WUHU216DAVISVP2,2013-08-12 16:29:00,
2013-08-12 12:34:00,77.0,60.6,29.97,West,269,1.8,8.0,57,0.00,,,0.00,WUHU216DAVISVP2,2013-08-12 16:34:00,
2013-08-12 12:39:00,77.2,60.0,29.96,West,265,2.9,8.0,55,0.00,,,0.00,WUHU216DAVISVP2,2013-08-12 16:39:00,
2013-08-12 12:44:00,77.2,59.4,29.97,WNW,301,4.0,8.0,54,0.00,,,0.00,WUHU216DAVISVP2,2013-08-12 16:44:00,
2013-08-12 12:49:00,76.7,57.9,29.97,West,281,2.1,6.0,52,0.00,,,0.00,WUHU216DAVISVP2,2013-08-12 16:49:00,
2013-08-12 12:54:00,76.7,61.3,29.96,West,276,3.1,7.0,59,0.00,,,0.00,WUHU216DAVISVP2,2013-08-12 16:54:00,
2013-08-12 12:59:00,77.0,59.6,29.96,NW,311,2.4,7.0,55,0.00,,,0.00,WUHU216DAVISVP2,2013-08-12 16:59:00,
2013-08-12 13:04:00,77.5,59.7,29.96,NW,315,1.5,7.0,54,0.00,,,0.00,WUHU216DAVISVP2,2013-08-12 17:04:00,
2013-08-12 13:09:00,78.1,61.3,29.96,NW,312,2.4,7.0,56,0.00,,,0.00,WUHU216DAVISVP2,2013-08-12 17:09:00,
2013-08-12 13:14:00,78.2,59.8,29.96,North,355,2.4,8.0,53,0.00,,,0.00,WUHU216DAVISVP2,2013-08-12 17:14:00,
2013-08-12 13:19:00,78.1,58.0,29.95,WNW,296,2.2,8.0,50,0.00,,,0.00,WUHU216DAVISVP2,2013-08-12 17:19:00,
2013-08-12 13:24:00,78.0,60.7,29.96,WNW,296,1.0,8.0,55,0.00,,,0.00,WUHU216DAVISVP2,2013-08-12 17:24:00,
2013-08-12 13:29:00,77.9,60.4,29.96,West,277,2.4,8.0,55,0.00,,,0.00,WUHU216DAVISVP2,2013-08-12 17:29:00,
2013-08-12 13:34:00,77.7,58.2,29.96,West,278,0.0,8.0,51,0.00,,,0.00,WUHU216DAVISVP2,2013-08-12 17:34:00,
2013-08-12 13:39:00,77.9,60.1,29.96,West,278,1.7,8.0,54,0.00,,,0.00,WUHU216DAVISVP2,2013-08-12 17:39:00,
2013-08-12 13:44:00,78.1,58.6,29.95,West,278,1.0,8.0,51,0.00,,,0.00,WUHU216DAVISVP2,2013-08-12 17:44:00,
2013-08-12 13:49:00,78.1,59.2,29.95,West,278,3.0,3.0,52,0.00,,,0.00,WUHU216DAVISVP2,2013-08-12 17:49:00,
2013-08-12 13:54:00,78.3,59.2,29.95,WNW,282,1.5,6.0,52,0.00,,,0.00,WUHU216DAVISVP2,2013-08-12 17:54:00,
2013-08-12 13:59:00,79.1,62.3,29.95,West,281,3.0,6.0,56,0.00,,,0.00,WUHU216DAVISVP2,2013-08-12 17:59:00,
2013-08-12 14:04:00,79.7,59.5,29.95,WNW,284,2.0,5.0,50,0.00,,,0.00,WUHU216DAVISVP2,2013-08-12 18:04:00,
2013-08-12 14:09:00,79.5,61.0,29.95,WNW,286,1.0,5.0,53,0.00,,,0.00,WUHU216DAVISVP2,2013-08-12 18:09:00,
2013-08-12 14:14:00,78.7,61.4,29.95,WNW,286,1.0,4.0,55,0.00,,,0.00,WUHU216DAVISVP2,2013-08-12 18:14:00,
2013-08-12 14:19:00,78.5,61.2,29.95,WNW,286,0.0,4.0,55,0.00,,,0.00,WUHU216DAVISVP2,2013-08-12 18:19:00,
2013-08-12 14:24:00,79.2,60.7,29.95,WNW,286,2.5,5.0,53,0.00,,,0.00,WUHU216DAVISVP2,2013-08-12 18:24:00,
2013-08-12 14:29:00,79.2,60.1,29.95,West,274,1.8,10.0,52,0.00,,,0.00,WUHU216DAVISVP2,2013-08-12 18:29:00,
2013-08-12 14:35:00,78.6,58.5,29.95,West,281,1.3,10.0,50,0.00,,,0.00,WUHU216DAVISVP2,2013-08-12 18:35:00,
2013-08-12 14:39:00,78.0,59.1,29.95,West,281,1.0,10.0,52,0.00,,,0.00,WUHU216DAVISVP2,2013-08-12 18:39:00,
2013-08-12 14:44:00,78.2,59.8,29.94,West,281,0.0,10.0,53,0.00,,,0.00,WUHU216DAVISVP2,2013-08-12 18:44:00,
2013-08-12 14:49:00,78.7,62.2,29.94,West,281,1.0,5.0,57,0.00,,,0.00,WUHU216DAVISVP2,2013-08-12 18:49:00,
2013-08-12 14:54:00,78.9,61.9,29.94,WSW,254,1.8,4.0,56,0.00,,,0.00,WUHU216DAVISVP2,2013-08-12 18:54:00,
2013-08-12 15:00:00,79.1,62.8,29.93,South,184,3.0,6.0,57,0.00,,,0.00,WUHU216DAVISVP2,2013-08-12 19:00:00,
2013-08-12 15:05:00,79.5,60.5,29.94,South,187,1.5,6.0,52,0.00,,,0.00,WUHU216DAVISVP2,2013-08-12 19:05:00,
2013-08-12 15:09:00,80.3,61.8,29.93,SSW,199,1.0,6.0,53,0.00,,,0.00,WUHU216DAVISVP2,2013-08-12 19:09:00,
2013-08-12 15:14:00,80.7,61.0,29.93,SSW,198,0.0,6.0,51,0.00,,,0.00,WUHU216DAVISVP2,2013-08-12 19:14:00,
2013-08-12 15:20:00,80.9,62.9,29.93,SSW,198,0.0,5.0,54,0.00,,,0.00,WUHU216DAVISVP2,2013-08-12 19:20:00,
2013-08-12 15:25:00,81.0,61.9,29.93,SSW,207,0.0,3.0,52,0.00,,,0.00,WUHU216DAVISVP2,2013-08-12 19:25:00,
2013-08-12 15:30:00,80.8,60.0,29.93,SSW,207,1.5,3.0,49,0.00,,,0.00,WUHU216DAVISVP2,2013-08-12 19:30:00,
2013-08-12 15:35:00,80.5,60.8,29.93,SSW,208,1.0,3.0,51,0.00,,,0.00,WUHU216DAVISVP2,2013-08-12 19:35:00,
2013-08-12 15:40:00,81.0,63.0,29.93,South,184,4.0,4.0,54,0.00,,,0.00,WUHU216DAVISVP2,2013-08-12 19:40:00,
2013-08-12 15:45:00,80.8,59.9,29.93,SW,233,2.4,5.0,49,0.00,,,0.00,WUHU216DAVISVP2,2013-08-12 19:45:00,
2013-08-12 15:50:00,80.4,60.6,29.93,WNW,292,2.5,6.0,51,0.00,,,0.00,WUHU216DAVISVP2,2013-08-12 19:50:00,
2013-08-12 15:55:00,80.3,62.3,29.92,WNW,300,1.7,6.0,54,0.00,,,0.00,WUHU216DAVISVP2,2013-08-12 19:55:00,
2013-08-12 16:00:00,80.5,61.4,29.92,WSW,242,2.0,5.0,52,0.00,,,0.00,WUHU216DAVISVP2,2013-08-12 20:00:00,
2013-08-12 16:05:00,80.5,59.1,29.92,SW,226,0.0,5.0,48,0.00,,,0.00,WUHU216DAVISVP2,2013-08-12 20:05:00,
2013-08-12 16:10:00,80.2,59.4,29.92,WSW,250,3.0,5.0,49,0.00,,,0.00,WUHU216DAVISVP2,2013-08-12 20:10:00,
2013-08-12 16:15:00,80.3,60.7,29.92,SW,228,2.0,6.0,51,0.00,,,0.00,WUHU216DAVISVP2,2013-08-12 20:15:00,
2013-08-12 16:20:00,80.6,61.5,29.92,WSW,251,7.0,10.0,52,0.00,,,0.00,WUHU216DAVISVP2,2013-08-12 20:20:00,
2013-08-12 16:25:00,80.4,60.2,29.92,SW,215,2.6,10.0,50,0.00,,,0.00,WUHU216DAVISVP2,2013-08-12 20:25:00,
2013-08-12 16:30:00,80.5,59.1,29.92,WNW,282,3.5,10.0,48,0.00,,,0.00,WUHU216DAVISVP2,2013-08-12 20:30:00,
2013-08-12 16:35:00,80.2,60.6,29.92,West,270,3.1,10.0,51,0.00,,,0.00,WUHU216DAVISVP2,2013-08-12 20:35:00,
2013-08-12 16:40:00,80.6,62.1,29.92,West,271,4.0,7.0,53,0.00,,,0.00,WUHU216DAVISVP2,2013-08-12 20:40:00,
2013-08-12 16:45:00,80.7,60.9,29.92,WSW,253,3.1,7.0,51,0.00,,,0.00,WUHU216DAVISVP2,2013-08-12 20:45:00,
2013-08-12 16:50:00,80.7,61.4,29.92,WSW,255,2.6,7.0,52,0.00,,,0.00,WUHU216DAVISVP2,2013-08-12 20:50:00,
2013-08-12 16:55:00,80.4,60.6,29.92,SSW,213,2.4,7.0,51,0.00,,,0.00,WUHU216DAVISVP2,2013-08-12 20:55:00,
2013-08-12 17:00:00,80.3,62.1,29.92,SW,228,1.7,7.0,54,0.00,,,0.00,WUHU216DAVISVP2,2013-08-12 21:00:00,
2013-08-12 17:05:00,80.3,59.4,29.92,SW,218,3.9,9.0,49,0.00,,,0.00,WUHU216DAVISVP2,2013-08-12 21:05:00,
2013-08-12 17:10:00,80.2,61.0,29.92,WSW,241,2.0,9.0,52,0.00,,,0.00,WUHU216DAVISVP2,2013-08-12 21:10:00,
2013-08-12 17:15:00,80.5,60.7,29.92,SSW,212,2.3,8.0,51,0.00,,,0.00,WUHU216DAVISVP2,2013-08-12 21:15:00,
2013-08-12 17:20:00,80.5,61.8,29.92,WNW,292,4.0,8.0,53,0.00,,,0.00,WUHU216DAVISVP2,2013-08-12 21:20:00,
2013-08-12 17:25:00,80.1,60.3,29.92,SW,215,4.0,8.0,51,0.00,,,0.00,WUHU216DAVISVP2,2013-08-12 21:25:00,
2013-08-12 17:30:00,80.2,61.0,29.92,SSW,205,7.0,8.0,52,0.00,,,0.00,WUHU216DAVISVP2,2013-08-12 21:30:00,
2013-08-12 17:35:00,80.2,60.4,29.91,SW,225,2.3,8.0,51,0.00,,,0.00,WUHU216DAVISVP2,2013-08-12 21:35:00,
2013-08-12 17:40:00,80.4,61.7,29.91,SW,230,2.0,8.0,53,0.00,,,0.00,WUHU216DAVISVP2,2013-08-12 21:40:00,
2013-08-12 17:45:00,80.7,62.5,29.91,SSW,203,2.0,8.0,54,0.00,,,0.00,WUHU216DAVISVP2,2013-08-12 21:45:00,
2013-08-12 17:50:00,80.7,60.9,29.91,SW,219,3.4,8.0,51,0.00,,,0.00,WUHU216DAVISVP2,2013-08-12 21:50:00,
2013-08-12 17:55:00,80.3,60.0,29.91,WSW,251,3.3,8.0,50,0.00,,,0.00,WUHU216DAVISVP2,2013-08-12 21:55:00,
2013-08-12 18:00:00,80.1,62.0,29.91,WNW,288,3.0,8.0,54,0.00,,,0.00,WUHU216DAVISVP2,2013-08-12 22:00:00,
2013-08-12 18:05:00,79.8,60.6,29.91,West,274,5.0,12.0,52,0.00,,,0.00,WUHU216DAVISVP2,2013-08-12 22:05:00,
2013-08-12 18:10:00,79.6,61.5,29.91,West,281,2.1,12.0,54,0.00,,,0.00,WUHU216DAVISVP2,2013-08-12 22:10:00,
2013-08-12 18:15:00,79.5,61.9,29.91,SW,232,2.8,12.0,55,0.00,,,0.00,WUHU216DAVISVP2,2013-08-12 22:15:00,
2013-08-12 18:20:00,79.4,60.8,29.91,SW,231,4.4,11.0,53,0.00,,,0.00,WUHU216DAVISVP2,2013-08-12 22:20:00,
2013-08-12 18:25:00,79.1,61.0,29.91,SW,235,1.6,9.0,54,0.00,,,0.00,WUHU216DAVISVP2,2013-08-12 22:25:00,
2013-08-12 18:30:00,78.5,61.0,29.91,SW,236,2.7,8.0,55,0.00,,,0.00,WUHU216DAVISVP2,2013-08-12 22:30:00,
2013-08-12 18:35:00,78.1,60.8,29.91,SW,232,3.1,8.0,55,0.00,,,0.00,WUHU216DAVISVP2,2013-08-12 22:35:00,
2013-08-12 18:40:00,77.9,61.6,29.91,SW,232,1.0,8.0,57,0.00,,,0.00,WUHU216DAVISVP2,2013-08-12 22:40:00,
2013-08-12 18:45:00,78.0,62.2,29.91,SW,229,1.0,7.0,58,0.00,,,0.00,WUHU216DAVISVP2,2013-08-12 22:45:00,
2013-08-12 18:50:00,78.3,61.8,29.91,SSW,213,0.0,7.0,57,0.00,,,0.00,WUHU216DAVISVP2,2013-08-12 22:50:00,
2013-08-12 18:55:00,78.7,62.2,29.91,SSW,213,1.0,4.0,57,0.00,,,0.00,WUHU216DAVISVP2,2013-08-12 22:55:00,
2013-08-12 19:00:00,79.0,63.4,29.91,SSW,213,0.0,4.0,59,0.00,,,0.00,WUHU216DAVISVP2,2013-08-12 23:00:00,
2013-08-12 19:05:00,78.5,62.7,29.90,SSW,213,0.0,2.0,58,0.00,,,0.00,WUHU216DAVISVP2,2013-08-12 23:05:00,
2013-08-12 19:10:00,77.8,62.5,29.90,SSW,213,1.0,2.0,59,0.00,,,0.00,WUHU216DAVISVP2,2013-08-12 23:10:00,
2013-08-12 19:15:00,77.5,62.7,29.90,SSW,213,1.0,3.0,60,0.00,,,0.00,WUHU216DAVISVP2,2013-08-12 23:15:00,
2013-08-12 19:20:00,77.1,62.8,29.90,SSW,213,0.0,3.0,61,0.00,,,0.00,WUHU216DAVISVP2,2013-08-12 23:20:00,
2013-08-12 19:25:00,76.8,62.6,29.90,SSW,213,1.0,3.0,61,0.00,,,0.00,WUHU216DAVISVP2,2013-08-12 23:25:00,
2013-08-12 19:30:00,76.2,62.9,29.91,SSW,213,1.2,4.0,63,0.00,,,0.00,WUHU216DAVISVP2,2013-08-12 23:30:00,
2013-08-12 19:35:00,75.8,62.5,29.91,SW,217,1.8,4.0,63,0.00,,,0.00,WUHU216DAVISVP2,2013-08-12 23:35:00,
2013-08-12 19:40:00,75.5,62.7,29.91,SW,217,1.0,4.0,64,0.00,,,0.00,WUHU216DAVISVP2,2013-08-12 23:40:00,
2013-08-12 19:45:00,75.1,62.5,29.91,SW,217,0.0,4.0,65,0.00,,,0.00,WUHU216DAVISVP2,2013-08-12 23:45:00,
2013-08-12 19:50:00,74.8,62.5,29.91,SW,217,0.0,3.0,65,0.00,,,0.00,WUHU216DAVISVP2,2013-08-12 23:50:00,
2013-08-12 19:55:00,74.7,62.8,29.91,SW,217,1.0,2.0,66,0.00,,,0.00,WUHU216DAVISVP2,2013-08-12 23:55:00,
2013-08-12 20:00:00,74.4,62.9,29.91,SW,217,1.0,2.0,67,0.00,,,0.00,WUHU216DAVISVP2,2013-08-13 00:00:00,
2013-08-12 20:05:00,74.3,62.8,29.91,SW,217,0.0,2.0,67,0.00,,,0.00,WUHU216DAVISVP2,2013-08-13 00:05:00,
2013-08-12 20:10:00,74.0,64.0,29.91,SW,217,0.0,2.0,71,0.00,,,0.00,WUHU216DAVISVP2,2013-08-13 00:10:00,
2013-08-12 20:15:00,73.5,63.9,29.91,SW,217,0.0,1.0,72,0.00,,,0.00,WUHU216DAVISVP2,2013-08-13 00:15:00,
2013-08-12 20:20:00,72.9,63.7,29.91,SW,217,0.0,0.0,73,0.00,,,0.00,WUHU216DAVISVP2,2013-08-13 00:20:00,
2013-08-12 20:25:00,72.2,63.4,29.91,SW,217,0.0,0.0,74,0.00,,,0.00,WUHU216DAVISVP2,2013-08-13 00:25:00,
2013-08-12 20:30:00,71.5,63.2,29.91,SW,217,0.0,0.0,75,0.00,,,0.00,WUHU216DAVISVP2,2013-08-13 00:30:00,
2013-08-12 20:35:00,70.7,63.1,29.91,SW,217,0.0,0.0,77,0.00,,,0.00,WUHU216DAVISVP2,2013-08-13 00:35:00,
2013-08-12 20:40:00,70.0,62.9,29.91,SW,217,0.0,0.0,78,0.00,,,0.00,WUHU216DAVISVP2,2013-08-13 00:40:00,
2013-08-12 20:45:00,69.4,62.7,29.92,SW,217,0.0,0.0,79,0.00,,,0.00,WUHU216DAVISVP2,2013-08-13 00:45:00,
2013-08-12 20:50:00,69.0,63.0,29.92,SW,217,0.0,0.0,81,0.00,,,0.00,WUHU216DAVISVP2,2013-08-13 00:50:00,
2013-08-12 20:55:00,68.6,62.6,29.92,SW,217,0.0,0.0,81,0.00,,,0.00,WUHU216DAVISVP2,2013-08-13 00:55:00,
2013-08-12 21:00:00,68.3,62.6,29.92,SW,217,0.0,0.0,82,0.00,,,0.00,WUHU216DAVISVP2,2013-08-13 01:00:00,
2013-08-12 21:05:00,68.0,62.4,29.92,SW,217,0.0,0.0,82,0.00,,,0.00,WUHU216DAVISVP2,2013-08-13 01:05:00,
2013-08-12 21:10:00,67.7,62.4,29.92,SW,217,0.0,0.0,83,0.00,,,0.00,WUHU216DAVISVP2,2013-08-13 01:10:00,
2013-08-12 21:15:00,67.5,62.5,29.92,SW,217,0.0,0.0,84,0.00,,,0.00,WUHU216DAVISVP2,2013-08-13 01:15:00,
2013-08-12 21:20:00,67.3,62.3,29.92,SW,217,0.0,0.0,84,0.00,,,0.00,WUHU216DAVISVP2,2013-08-13 01:20:00,
2013-08-12 21:25:00,67.1,62.5,29.92,SW,217,0.0,0.0,85,0.00,,,0.00,WUHU216DAVISVP2,2013-08-13 01:25:00,
2013-08-12 21:30:00,66.9,62.3,29.92,SW,217,0.0,0.0,85,0.00,,,0.00,WUHU216DAVISVP2,2013-08-13 01:30:00,
2013-08-12 21:35:00,66.7,62.0,29.92,SW,217,0.0,0.0,85,0.00,,,0.00,WUHU216DAVISVP2,2013-08-13 01:35:00,
2013-08-12 21:40:00,66.5,62.2,29.92,SW,217,0.0,0.0,86,0.00,,,0.00,WUHU216DAVISVP2,2013-08-13 01:40:00,
2013-08-12 21:45:00,66.3,62.0,29.92,SW,217,0.0,0.0,86,0.00,,,0.00,WUHU216DAVISVP2,2013-08-13 01:45:00,
2013-08-12 21:50:00,66.0,62.0,29.92,SW,217,0.0,0.0,87,0.00,,,0.00,WUHU216DAVISVP2,2013-08-13 01:50:00,
2013-08-12 21:55:00,65.8,61.8,29.91,SW,217,0.0,0.0,87,0.00,,,0.00,WUHU216DAVISVP2,2013-08-13 01:55:00,
2013-08-12 22:00:00,65.6,61.9,29.91,SW,217,0.0,0.0,88,0.00,,,0.00,WUHU216DAVISVP2,2013-08-13 02:00:00,
2013-08-12 22:05:00,65.4,61.7,29.91,SW,217,0.0,0.0,88,0.00,,,0.00,WUHU216DAVISVP2,2013-08-13 02:05:00,
2013-08-12 22:10:00,65.2,61.5,29.91,SW,217,0.0,0.0,88,0.00,,,0.00,WUHU216DAVISVP2,2013-08-13 02:10:00,
2013-08-12 22:15:00,65.1,61.8,29.92,SW,217,0.0,0.0,89,0.00,,,0.00,WUHU216DAVISVP2,2013-08-13 02:15:00,
2013-08-12 22:20:00,64.9,61.6,29.92,SW,217,0.0,0.0,89,0.00,,,0.00,WUHU216DAVISVP2,2013-08-13 02:20:00,
2013-08-12 22:25:00,64.8,61.8,29.92,SW,217,0.0,0.0,90,0.00,,,0.00,WUHU216DAVISVP2,2013-08-13 02:25:00,
2013-08-12 22:30:00,64.7,61.7,29.91,SW,217,0.0,0.0,90,0.00,,,0.00,WUHU216DAVISVP2,2013-08-13 02:30:00,
2013-08-12 22:35:00,64.5,61.5,29.91,SW,217,0.0,0.0,90,0.00,,,0.00,WUHU216DAVISVP2,2013-08-13 02:35:00,
2013-08-12 22:40:00,64.3,61.6,29.92,SW,217,0.0,0.0,91,0.00,,,0.00,WUHU216DAVISVP2,2013-08-13 02:40:00,
2013-08-12 22:45:00,64.1,61.4,29.92,SW,217,0.0,0.0,91,0.00,,,0.00,WUHU216DAVISVP2,2013-08-13 02:45:00,
2013-08-12 22:50:00,64.0,61.3,29.92,SW,217,0.0,0.0,91,0.00,,,0.00,WUHU216DAVISVP2,2013-08-13 02:50:00,
2013-08-12 22:55:00,63.9,61.2,29.92,SW,217,0.0,0.0,91,0.00,,,0.00,WUHU216DAVISVP2,2013-08-13 02:55:00,
2013-08-12 23:00:00,63.8,61.4,29.91,SW,217,0.0,0.0,92,0.00,,,0.00,WUHU216DAVISVP2,2013-08-13 03:00:00,
2013-08-12 23:05:00,63.6,61.2,29.91,SW,217,0.0,0.0,92,0.00,,,0.00,WUHU216DAVISVP2,2013-08-13 03:05:00,
2013-08-12 23:10:00,63.4,61.0,29.91,SW,217,0.0,0.0,92,0.00,,,0.00,WUHU216DAVISVP2,2013-08-13 03:10:00,
2013-08-12 23:15:00,63.2,60.8,29.91,SW,217,0.0,0.0,92,0.00,,,0.00,WUHU216DAVISVP2,2013-08-13 03:15:00,
2013-08-12 23:20:00,63.1,61.0,29.92,SW,217,0.0,0.0,93,0.00,,,0.00,WUHU216DAVISVP2,2013-08-13 03:20:00,
2013-08-12 23:25:00,63.0,60.9,29.92,SW,217,0.0,0.0,93,0.00,,,0.00,WUHU216DAVISVP2,2013-08-13 03:25:00,
2013-08-12 23:30:00,62.9,60.8,29.92,SW,217,0.0,0.0,93,0.00,,,0.00,WUHU216DAVISVP2,2013-08-13 03:30:00,
2013-08-12 23:35:00,62.9,60.8,29.92,SW,217,0.0,0.0,93,0.00,,,0.00,WUHU216DAVISVP2,2013-08-13 03:35:00,
2013-08-12 23:40:00,62.9,61.1,29.91,SW,217,0.0,0.0,94,0.00,,,0.00,WUHU216DAVISVP2,2013-08-13 03:40:00,
2013-08-12 23:45:00,62.8,61.0,29.91,SW,217,0.0,0.0,94,0.00,,,0.00,WUHU216DAVISVP2,2013-08-13 03:45:00,
2013-08-12 23:52:00,62.6,60.8,29.92,SW,217,0.0,0.0,94,0.00,,,0.00,WUHU216DAVISVP2,2013-08-13 03:52:00,
2013-08-12 23:57:00,62.5,60.7,29.91,SW,217,0.0,0.0,94,0.00,,,0.00,WUHU216DAVISVP2,2013-08-13 03:57:00,